www.pogodaiklimat.ru

Погода и климат >> Архив погоды >> Россия >> Якутия >> Делянкир


ПОГОДА в Делянкире

  • Прогноз погоды в Делянкире
  • Монитор погоды в Делянкире

АРХИВ ПОГОДЫ в Делянкире

Время (UTC), дата Ветер
(напр.,м/с)
 
Видим.   Явления Облачность Т
(С)
Тd
(С)
f
(%)
Тe
(С)
Тes
(С)
Комфортность P
(гПа)
Po
(гПа)
Тmin
(С)
Tmax
(С)
R
(мм)
R24
(мм)
S
(см)
09 19.04 С 1 20 км слаб. снег 10/0
[As op]
-4.9 -8.1 78 -7 -7 1018.4 920.5 -3.4 0.0
12 19.04 С 1 10 км слаб. снег 10/0
[As op]
-6.4 -8.9 82 -9 -9 1018.8 920.4
15 19.04 СЗ 1 10 км слаб. снег 10/0
[As op]
-7.2 -8.5 90 -10 -10 1018.7 920.0
18 19.04 З 1 10 км слаб. снег 10/0
[As op]
-7.0 -7.9 93 -9 -9 1016.5 918.1
21 19.04 штиль 0 10 км слаб. снег 10/0
[As op]
-7.0 -7.9 93 -8 -7 1017.1 918.6 -7.5 3 40
00 20.04 штиль 0 50 км {снег} 3/0
[As trans]
-4.5 -8.0 77 -5 +2 1017.2 919.6
03 20.04 СЗ 1 50 км 8/6 1000 м
[Cu Sc Cs]
-3.0 -10.5 56 -5 -1 1016.1 919.6
06 20.04 СЗ 1 50 км 8/6 600 м
[Cu hum As trans]
+1.0 -12.0 37 0 +2 1015.5 919.9
09 20.04 Ю 1 50 км 9/8 1000 м
[Cu Sc Ci fib]
-0.1 -10.6 45 -1 -1 1015.8 919.8 +1.3 0.0
12 20.04 штиль 0 50 км 9/9 1000 м
[Sc]
-4.0 -10.8 59 -5 -5 1017.4 919.9
15 20.04 штиль 0 50 км 8/8 1000 м
[Sc]
-8.0 -10.3 83 -9 -9 1018.6 919.6
18 20.04 штиль 0 50 км 8/8 1000 м
[Sc]
-10.6 -12.6 85 -11 -11 1019.2 919.3
21 20.04 СЗ 1 50 км 9/5 1000 м
[Sc Ci fib]
-12.4 -15.1 80 -15 -14 1020.3 919.5 -12.7 39
00 21.04 Ю 2 50 км 9/0
[As trans Cs]
-2.4 -10.6 53 -6 -1 1016.5 919.6
03 21.04 ЮВ 3 50 км 8/0
[As trans Ci fib]
+0.4 -8.8 50 -3 +2 1014.2 918.5
06 21.04 Ю 3 50 км 8/3 1000 м
[Sc Ac As Ci fib]
+1.9 -7.0 52 -2 0 1013.1 918.1
09 21.04 Ю 3 50 км 8/3 1000 м
[Sc As trans Ci fib]
+0.9 -8.0 51 -3 -3 1013.7 918.3 +2.7
12 21.04 Ю 3 50 км 10/0
[As op]
-1.1 -9.9 51 -5 -5 1014.4 918.2
15 21.04 Ю 2 50 км 8/0
[As trans]
-2.3 -9.1 60 -6 -6 1014.5 917.9
18 21.04 В 2 50 км 8/0
[As trans]
-3.0 -8.8 64 -7 -7 1014.4 917.5
21 21.04 ЮВ 2 50 км 10/0
[As op]
-3.5 -8.7 67 -7 -7 1014.1 917.1 -14.0 39
00 22.04 Ю 3 50 км 10/3 1000 м
[Sc As op]
-2.0 -9.1 58 -7 -6 1013.2 916.8
03 22.04 Ю 2 50 км 8/6 1000 м
[Cu Sc Cs]
-0.1 -9.6 49 -3 0 1011.3 915.7
06 22.04 Ю 2 50 км 9/8 1000 м
[Sc Cs]
-0.5 -10.2 48 -3 -3 1010.9 915.3
09 22.04 Ю 2 50 км 10/0
[As trans Ci fib]
-1.5 -10.6 50 -5 -4 1011.1 915.1 +1.0
12 22.04 Ю 2 50 км 10/0
[As op]
-3.0 -9.7 60 -7 -7 1012.0 915.4
15 22.04 штиль 0 50 км 8/6 1000 м
[Sc As trans]
-7.5 -11.9 71 -8 -8 1013.2 914.9
18 22.04 штиль 0 50 км 9/5 1000 м
[Sc As trans]
-9.6 -13.7 72 -10 -10 1013.7 914.6
21 22.04 ЮВ 1 50 км 8/3 1000 м
[Sc As trans Ci fib]
-10.4 -13.2 80 -13 -12 1014.1 914.7 -11.2 39
00 23.04 Ю 2 50 км 8/3 1000 м
[Sc As trans Ci fib]
-3.3 -11.6 53 -7 -4 1010.7 914.1
03 23.04 ЮВ 2 50 км 8/6 1000 м
[Cu Sc Ci fib]
-0.2 -9.8 48 -3 0 1009.3 913.9
06 23.04 Ю 2 50 км осадки на расстоянии 9/9 600 м
[Cb cap]
-1.1 -9.2 54 -4 -4 1009.4 913.6
09 23.04 Ю 1 50 км осадки на расстоянии 8/8 600 м
[Cb cap]
-2.5 -10.8 53 -4 -4 1010.1 913.8 +0.4
12 23.04 Ю 1 50 км 6/6 1000 м
[Sc]
-4.1 -10.9 59 -6 -6 1011.3 914.4
15 23.04 В 1 50 км 4/4 1000 м
[Sc]
-14.4 -16.4 85 -17 -17 1015.5 914.5
18 23.04 штиль 0 50 км 4/4 1000 м
[Sc]
-16.0 -17.9 85 -16 -16 1016.9 915.2
21 23.04 штиль 0 50 км 6/6 1000 м
[Sc]
-13.5 -15.5 85 -14 -12 1015.5 915.7 -17.5 39
00 24.04 штиль 0 50 км 6/4 1000 м
[Sc Ac trans]
-5.2 -12.1 58 -6 -1 1013.5 916.0
03 24.04 С 1 50 км 9/9 1000 м
[Cu Sc]
-0.8 -11.8 43 -2 -1 1011.7 915.8
06 24.04 Ю 1 50 км 8/8 600 м
[Cu hum]
-0.4 -10.1 48 -2 -1 1011.5 916.8
09 24.04 СЗ 1 50 км 4/4 600 м
[Cu med, cong]
-0.4 -11.7 42 -2 -1 1011.7 916.0 +1.2
12 24.04 штиль 0 50 км 4/4 1000 м
[Sc]
-8.4 -16.0 54 -9 -9 1015.2 916.4
15 24.04 штиль 0 50 км 4/4 1000 м
[Sc]
-17.2 -19.1 85 -17 -17 1018.8 916.4
18 24.04 Ю 1 50 км 6/6 1000 м
[Sc]
-14.4 -16.4 85 -17 -17 1018.3 917.1
21 24.04 ЮВ 1 50 км 4/4 1000 м
[Sc]
-14.0 -16.0 85 -16 -15 1018.2 917.1 -19.8 38
00 25.04 В 2 50 км ясно -6.0 -15.1 49 -10 -2 1014.5 916.5
03 25.04 С 1 50 км 4/4 600 м
[Cu hum]
-2.2 -13.1 43 -4 +3 1011.7 915.4
06 25.04 С 1 50 км 8/8 600 м
[Cu Sc]
-0.6 -11.5 43 -2 -1 1009.5 913.9
09 25.04 С 1 50 км 10/8 600 м
[Cu Sc Ci fib]
-2.1 -11.1 50 -4 -4 1009.6 913.5 +1.1
12 25.04 С 1 50 км 8/8 1000 м
[Sc]
-4.2 -11.6 56 -6 -6 1010.2 913.4
15 25.04 В 1 50 км 9/6 1000 м
[Sc As trans]
-9.0 -12.9 73 -11 -11 1011.6 912.9
18 25.04 штиль 0 50 км 9/6 1000 м
[Sc As trans]
-11.2 -14.0 80 -11 -11 1011.0 911.6
21 25.04 Ю 1 50 км в посл. час ливневой снег 9/9 600 м
[Cb cap]
-10.2 -13.8 75 -12 -12 1010.3 911.4 -11.3 0.2 38
00 26.04 штиль 0 50 км 9/9 1000 м
[Sc]
-5.2 -10.2 68 -6 -5 1008.0 911.0
03 26.04 СЗ 1 50 км 6/6 600 м
[Cu hum]
-2.8 -8.5 65 -5 -0 1004.9 909.0

 

Местоположение метеостанции Делянкир (Якутия, Россия): широта 63.83 долгота 145.60 высота над уровнем моря 801 м.

В архиве по умолчанию представлена погода в Делянкире за последнюю неделю. Архивные данные за месяц целиком и за предыдущие месяцы, начиная с января 2011 года, Вы можете получить, выбрав интересующий диапазон дат из раскрывающегося списка и нажав кнопку "Ввод!".


*Определитесь, кто Вы:
робот инопланетянин человек

Внимание! Время в таблицах - всемирное. Для получения местного времени необходимо прибавить поправку, которая равна 10 ч.

Смотрите также архив погоды в соседних городах и на ближайших метеорологических станциях:

Погода в Оймяконе (Якутия, Россия) (140 км)
Погода в Усть-Нере (Якутия, Россия) (144 км)
Погода в Сусумане (Магаданская область, Россия) (171 км)
Погода в Юртах (Якутия, Россия) (187 км)
Погода в Агаякане (Якутия, Россия) (201 км)
Погода в Колымской (Магаданская область, Россия) (242 км)
Погода в Ягодной (Магаданская область, Россия) (249 км)
Погода в Совхозе Эльген (Магаданская область, Россия) (275 км)
Погода на Озере Джека Лондона (Магаданская область, Россия) (277 км)
Погода в Восточной (Якутия, Россия) (305 км)

Пояснения к столбцам:

Ветер - указаны скорость ветра в м/с - средняя за 10 мин, порывы в срок и между сроками (в фигурных скобках) и направление, откуда дует ветер: С - северный, СВ - северо-восточный, В - восточный, ЮВ - юго-восточный, Ю - южный, ЮЗ - юго-западный, З - западный, СЗ - северо-западный.
Видимость - горизонтальная дальность видимости в метрах или километрах. При видимости от 1 до 10 км при отсутствии осадков обычно наблюдается дымка, при ухудшении видимости до 1 км и менее - туман. В сухую погоду видимость может ухудшаться дымом, пылью или мглою.
Явления - указаны атмосферные явления, наблюдавшиеся в срок или в последний час перед сроком; фигурными скобками обозначены явления, наблюдавшиеся между сроками (за 1-3 часа до срока); квадратными скобками обозначены град или гололедные отложения с указанием их диаметра в мм.
Облачность - указаны через наклонную черту общая и нижняя облачность в баллах и высота нижней границы облаков в метрах; квадратными скобками обозначены формы облаков: Ci - перистые, Cs - перисто-слоистые, Cc - перисто-кучевые, Ac - высококучевые, As - высокослоистые, Sc - слоисто-кучевые, Ns - слоисто-дождевые, Cu - кучевые, Cb - кучево-дождевые. Подробнее классификацию облаков см. в Атласе облаков (PDF).
T - Температура воздуха - температура, измеренная на высоте 2 м над землей.
Td - Температура точки росы - температура, при понижении до которой содержащийся в воздухе водяной пар достигнет насыщения.
f - Относительная влажность воздуха - влажноcть воздуха, измеренная на высоте 2 м над землей.
Te - Эффективная температура - температура, которую ощущает одетый по сезону человек в тени. Характеристика душности погоды. При расчете учитывается влияние влажности воздуха и скорости ветра на теплоощущения человека.
Tes - Эффективная температура на солнце - температура, которую ощущает человек, с поправкой на солнечный нагрев. Характеристика знойности погоды. Зависит от высоты солнца над горизонтом, облачности и скорости ветра. Ночью, в пасмурную погоду, а также при ветре 12 м/с и более поправка равна нулю.
P - Атмосферное давление - приведенное к уровню моря атмосферное давление.
Po - Атмосферное давление - измеренное на уровне метеостанции атмосферное давление.
Tmin - Минимальная температура - минимум температуры воздуха на высоте 2 м над землей.
Tmax - Максимальная температура - максимум температуры воздуха на высоте 2 м над землей.
R - Количество осадков - Количество выпавших осадков за период времени, мм. При наведении курсора мыши на число - период времени, за который выпало указанное количество осадков.
R24 - Количество осадков - Количество выпавших осадков за 24 часа, мм.
S - Снежный покров - Высота снежного покрова, см. При наведении курсора мыши на число - состояние снежного покрова и степень покрытия местности в баллах.